Home   Weather   Schleswig   Past weeks

Flag for Germany Past Weather in Schleswig, Schleswig-Holstein, Germany — Yesterday and Last 2 Weeks

Now
59 °F

Cool.


Feels Like: 56 °F
Forecast: 55 / 66 °F
Wind: 15 mph from Southwest

Location: Schleswig-Jagel

Current Time: Aug 19, 2017 at 5:09:20 pm

Latest Report: Aug 19, 2017 at 4:20 pm


Visibility: N/A

Pressure: 29.89 "Hg

Humidity: 82%

Dew Point: 54 °F

Location of SchleswigLocation

Past Weather in Schleswig — Graph

°F

Schleswig Temperature Yesterday

Maximum temperature yesterday: 70 °F (at 4:20 pm)
Minimum temperature yesterday: 61 °F (at 10:20 pm)
Average temperature yesterday: 64 °F

High & Low Weather Summary for the Past Weeks

 TemperatureHumidityPressure
High79 °F (Aug 15, 2:20 pm)100% (Aug 9, 1:20 am)30.24 "Hg (Aug 9, 1:20 am)
Low45 °F (Aug 14, 5:20 am)44% (Aug 7, 2:20 pm)29.71 "Hg (Aug 4, 3:20 pm)
Average62 °F78%29.98 "Hg
* Reported Aug 4 3:20 pm — Aug 19 3:20 pm, Schleswig. Weather by CustomWeather, © 2017

Note: Actual official high and low records may vary slightly from our data, if they occured in-between our weather recording intervals... More about our weather records

Advertising

Schleswig Weather History for the Previous 24 Hours

Scroll right to see more
 ConditionsComfort  
Time TempWeatherWind HumidityBarometerVisibility
3:20 pm
Sat, Aug 19
63 °FMild.18 mph68%29.89 "HgN/A
2:20 pm63 °FMild.15 mph68%29.89 "HgN/A
1:20 pm61 °FCool.20 mph72%29.86 "HgN/A
12:20 pm63 °FMild.21 mph64%29.86 "HgN/A
11:20 am61 °FCool.21 mph77%29.83 "HgN/A
10:20 am61 °FCool.15 mph77%29.83 "HgN/A
9:20 am57 °FCool.13 mph88%29.83 "HgN/A
8:20 am55 °FCool.10 mph94%29.83 "HgN/A
7:20 am55 °FCool.9 mph94%29.80 "HgN/A
6:20 am54 °FCool.8 mph94%29.80 "HgN/A
5:20 am54 °FCool.10 mph94%29.77 "HgN/A
4:20 am55 °FCool.8 mph94%29.77 "HgN/A
3:20 am59 °FCool.7 mph94%29.77 "HgN/A
2:20 am59 °FCool.7 mph94%29.77 "HgN/A
1:20 am57 °FCool.7 mph94%29.77 "HgN/A
12:20 am59 °FCool.7 mph94%29.77 "HgN/A
11:20 pm
Fri, Aug 18
61 °FCool.9 mph88%29.77 "HgN/A
10:20 pm61 °FCool.14 mph88%29.77 "HgN/A
9:20 pm63 °FMild.7 mph88%29.77 "HgN/A
8:20 pm64 °FMild.13 mph88%29.77 "HgN/A
7:20 pm66 °FMild.10 mph83%29.77 "HgN/A
6:20 pm68 °FMild.7 mph78%29.77 "HgN/A
5:20 pm70 °FMild.7 mph69%29.80 "HgN/A
Weather by CustomWeather, © 2017

See weather overviewHow to use our weather pages